Weather History for Jackson, KY

Change the Weather History Date:

Wednesday, February 13, 2013

  Actual Average Record
Temperature  
Mean Temperature 38 °F 38 °F  
Max Temperature 44 °F 47 °F 72 °F (1990)
Min Temperature 31 °F 29 °F 7 °F (1988)
Degree Days  
Heating Degree Days 27 27  
Month to date heating degree days 347 364  
Since 1 July heating degree days 2803 2930  
Cooling Degree Days 0 0  
Month to date cooling degree days 0 0  
Year to date cooling degree days 0 0  
Moisture  
Dew Point 30 °F    
Average Humidity 65    
Maximum Humidity 92    
Minimum Humidity 37    
Precipitation  
Precipitation 0.12 in 0.13 in 1.26 in (1989)
Month to date precipitation 0.76 1.72  
Year to date precipitation 6.49 5.33  
Snow  
Snow T in 0.30 in - ()
Month to date snowfall 3.7 3.7  
Since 1 July snowfall 7.7 16.3  
Snow Depth 0.00 in    
Sea Level Pressure  
Sea Level Pressure 29.80 in    
Wind  
Wind Speed 4 mph (NNW)    
Max Wind Speed 15 mph    
Max Gust Speed 23 mph    
Visibility 8 miles    
Events Rain , Snow    
T = Trace of Precipitation, MM = Missing Value Source: NWS Daily Summary

Daily Weather History Graph

Daily Weather History Graph

Search for Another Location

Airport:

Trip Planner

Search our weather history database for the weather conditions in past years. The results will help you decide how hot, cold, wet, or windy it might be!

Date:

Astronomy

Feb. 13, 2013 Rise Set
Actual Time 7:24 AM EST 6:10 PM EST
Civil Twilight 6:57 AM EST 6:37 PM EST
Nautical Twilight 6:27 AM EST 7:08 PM EST
Astronomical Twilight 5:56 AM EST 7:38 PM EST
Moon 8:58 AM EST (2/13) 10:06 PM EST (2/13)
Length of Visible Light 11h 39m
Length of Day
10h 46m
Waxing Crescent, 13% of the Moon is Illuminated
Feb 13
Waxing Crescent
Feb 17
First Quarter
Feb 25
Full
Mar 4
Last Quarter
Mar 11
New

Hourly Weather History & Observations

Time (EST) Temp. Windchill Dew Point Humidity Pressure Visibility Wind Dir Wind Speed Gust Speed Precip Events Conditions
12:53 AM 43.0 °F - 21.0 °F 42% 29.87 in 10.0 mi Calm Calm - N/A   Overcast
1:53 AM 43.0 °F - 19.9 °F 40% 29.84 in 10.0 mi Calm Calm - N/A   Overcast
2:53 AM 42.1 °F 40.2 °F 21.9 °F 45% 29.82 in 10.0 mi NE 3.5 mph - N/A   Overcast
3:53 AM 42.1 °F 39.2 °F 23.0 °F 47% 29.80 in 10.0 mi NE 4.6 mph - N/A   Overcast
4:53 AM 39.9 °F 35.1 °F 24.1 °F 53% 29.75 in 10.0 mi NE 6.9 mph - N/A   Overcast
5:53 AM 39.9 °F 35.8 °F 24.1 °F 53% 29.74 in 10.0 mi NE 5.8 mph - N/A   Overcast
6:53 AM 39.2 °F 35.0 °F 24.8 °F 56% 29.71 in 10.0 mi ENE 5.8 mph - N/A   Overcast
7:53 AM 39.9 °F 36.7 °F 23.0 °F 51% 29.70 in 10.0 mi NE 4.6 mph - N/A   Overcast
8:53 AM 39.0 °F 34.0 °F 27.0 °F 62% 29.72 in 10.0 mi NNE 6.9 mph - 0.01 in Rain Light Rain
9:53 AM 37.0 °F 31.6 °F 28.0 °F 70% 29.72 in 10.0 mi NNE 6.9 mph - 0.01 in   Overcast
10:53 AM 36.0 °F - 30.9 °F 82% 29.74 in 4.0 mi Calm Calm - 0.01 in Rain Light Rain
11:00 AM 35.6 °F - 32.0 °F 87% 29.72 in 4.0 mi Calm Calm - 0.00 in Rain Light Rain
11:38 AM 37.4 °F - 33.8 °F 87% 29.70 in 9.0 mi Calm Calm - 0.01 in Rain Light Rain
11:53 AM 37.9 °F - 35.1 °F 89% 29.70 in 10.0 mi Calm Calm - 0.01 in   Overcast
12:29 PM 39.2 °F - 33.8 °F 81% 29.69 in 10.0 mi Calm Calm - N/A   Overcast
12:53 PM 37.0 °F 31.0 °F 34.0 °F 89% 29.71 in 6.0 mi WNW 8.1 mph - 0.01 in Rain Light Rain
1:19 PM 35.6 °F 30.7 °F 33.8 °F 93% 29.70 in 4.0 mi North 5.8 mph - 0.03 in Snow Light Snow
1:49 PM 35.6 °F 29.2 °F 33.8 °F 93% 29.72 in 7.0 mi WNW 8.1 mph - 0.04 in Rain Light Rain
1:53 PM 35.1 °F 27.9 °F 33.1 °F 92% 29.73 in 7.0 mi WNW 9.2 mph - 0.04 in Rain Light Rain
2:53 PM 34.0 °F 23.8 °F 30.9 °F 89% 29.76 in 4.0 mi NNW 16.1 mph 23.0 mph 0.03 in Snow Light Snow
3:01 PM 33.8 °F 25.3 °F 30.2 °F 87% 29.75 in 3.0 mi NW 11.5 mph 23.0 mph 0.00 in Snow Light Snow
3:08 PM 33.8 °F 25.8 °F 30.2 °F 87% 29.75 in 1.8 mi NNW 10.4 mph 17.3 mph 0.00 in Snow Light Snow
3:24 PM 33.8 °F 27.7 °F 30.2 °F 87% 29.76 in 3.0 mi NW 6.9 mph - 0.00 in Snow Light Snow
3:53 PM 34.0 °F 28.0 °F 32.0 °F 92% 29.79 in 7.0 mi NW 6.9 mph - 0.00 in   Overcast
4:53 PM 33.1 °F 28.7 °F 30.9 °F 92% 29.83 in 6.0 mi Variable 4.6 mph - 0.00 in Snow Light Snow
5:35 PM 33.8 °F 28.6 °F 30.2 °F 87% 29.81 in 8.0 mi Variable 5.8 mph - 0.00 in   Overcast
5:45 PM 33.8 °F 29.6 °F 32.0 °F 93% 29.82 in 8.0 mi Variable 4.6 mph - 0.00 in   Overcast
5:53 PM 34.0 °F - 32.0 °F 92% 29.84 in 7.0 mi Calm Calm - 0.00 in   Overcast
6:00 PM 33.8 °F 30.8 °F 32.0 °F 93% 29.83 in 6.0 mi Variable 3.5 mph - N/A   Overcast
6:35 PM 33.8 °F 28.6 °F 30.2 °F 87% 29.85 in 9.0 mi West 5.8 mph - N/A   Overcast
6:53 PM 33.1 °F - 30.9 °F 92% 29.87 in 8.0 mi Calm Calm - N/A   Mostly Cloudy
7:17 PM 33.8 °F 29.6 °F 30.2 °F 87% 29.87 in 8.0 mi WSW 4.6 mph - N/A   Overcast
7:23 PM 33.8 °F 29.6 °F 30.2 °F 87% 29.88 in 9.0 mi WSW 4.6 mph - N/A   Overcast
7:33 PM 33.8 °F 29.6 °F 30.2 °F 87% 29.88 in 10.0 mi Variable 4.6 mph - N/A   Overcast
7:53 PM 33.1 °F - 30.9 °F 92% 29.91 in 9.0 mi Calm Calm - N/A   Overcast
8:53 PM 33.1 °F - 30.9 °F 92% 29.92 in 8.0 mi Calm Calm - N/A   Overcast
9:28 PM 33.8 °F 30.8 °F 30.2 °F 87% 29.91 in 9.0 mi WSW 3.5 mph - N/A   Overcast
9:35 PM 33.8 °F 29.6 °F 30.2 °F 87% 29.91 in 9.0 mi WSW 4.6 mph - N/A   Overcast
9:45 PM 33.8 °F 30.8 °F 30.2 °F 87% 29.92 in 9.0 mi Variable 3.5 mph - N/A   Overcast
9:53 PM 33.1 °F - 30.9 °F 92% 29.95 in 8.0 mi Calm Calm - N/A   Overcast
10:53 PM 30.9 °F 27.5 °F 28.9 °F 92% 29.96 in 9.0 mi Variable 3.5 mph - N/A   Scattered Clouds
11:53 PM 30.9 °F 27.5 °F 28.0 °F 89% 29.96 in 10.0 mi WSW 3.5 mph - N/A   Clear